User: anonymous   Login
Location: Amarillo Post Office Jordan Station
(35.1907°N, 101.9342°W)
Time: 14:07:34
(UTC+00:00)
Language:

PSLV R/B - Orbit

View from above orbital plane
View from above orbital plane
View from above satellite
View from above satellite

Ground track
Ground track

The orbit data is extracted from the following two-line orbital elements,

1 26960U 01049D   21125.94200693  .00000811  00000-0  54396-4 0  9992
2 26960  97.8249 130.9642 0054635  26.0432 334.3526 15.08702822 67856
Epoch (UTC): 05 May 2021 22:36:29
Eccentricity: 0.0054635
inclination: 97.8249°
perigee height: 502 km
apogee height: 578 km
right ascension of ascending node: 130.9642°
argument of perigee: 26.0432°
revolutions per day: 15.08702822
mean anomaly at epoch: 334.3526°
orbit number at epoch: 6785

The dashed part of the orbit path shows where the satellite is in the earth's shadow,  

DLR